Location: La Comballaz
(46.3780°N, 7.0817°E)
Time: 05:29:25
(UTC+00:00)

N. Korean satellite - Pass Details

Date: 08 December 2021
Orbit: 447 x 491 km, 97.3° (Epoch: 25 January)

Event Time Altitude Azimuth Distance (km) Brightness Sun altitude
Rises 04:28:08 0° 19° (NNE) 2,463 10.3 -25.6°
Reaches altitude 10° 04:30:16 10° 26° (NNE) 1,584 9.4 -25.2°
Maximum altitude 04:33:29 41° 98° (E) 661 7.6 -24.7°
Drops below altitude 10° 04:36:42 10° 171° (S) 1,573 9.3 -24.1°
Sets 04:38:47 0° 179° (S) 2,443 10.3 -23.8°
